Location: Malanoce
(44.2500°N, 7.4667°E)
Time: 19:57:31
(UTC+00:00)

BlueWalker 3 - Pass Details

Date: 24 January 2026
Orbit: 450 x 461 km, 53.2° (Epoch: 11 February)

Event Time Altitude Azimuth Distance (km) Brightness Sun altitude
Rises 18:47:44 0° 269° (W) 2,453 6.8 -24.7°
Reaches altitude 10° 18:50:06 10° 282° (WNW) 1,582 5.4 -25.2°
Enters shadow 18:52:23 24° 319° (NW) 967 3.7 -25.6°
